Regional Weather Roundup
Issued by NWS Raleigh/Durham, NC

Home | Current Version | Previous Version | Text Only | Print | Product List | Glossary On
Versions: 1 2 3 4 5 6 7 8 9 10 11 12 13 14 15 16 17 18 19 20 21 22 23 24 25 26
000
ASUS42 KRAH 261410
RWRRAH
NORTH CAROLINA WEATHER ROUNDUP
NATIONAL WEATHER SERVICE RALEIGH NC
1000 AM EDT THU MAY 26 2016

NOTE: "FAIR" INDICATES FEW OR NO CLOUDS BELOW 12,000 FEET WITH NO
SIGNIFICANT WEATHER AND/OR OBSTRUCTIONS TO VISIBILITY.

NCZ001-053-055-056-065-067-261500-
WESTERN NORTH CAROLINA

CITY           SKY/WX    TMP DP  RH WIND       PRES   REMARKS
ASHEVILLE      CLOUDY    70  57  63 VRB3      30.25F
JEFFERSON      MOSUNNY   66  61  83 CALM      30.27S
MORGANTON      CLOUDY    72  62  71 CALM      30.24F
HICKORY        CLOUDY    73  62  68 S5        30.19S
RUTHERFORDTON  CLOUDY    71  63  75 CALM      30.21S
MOUNT AIRY     PTSUNNY   71  65  83 CALM      30.21S
BOONE          CLOUDY    70  52  52 NW7       30.28S
$$

NCZ021-022-025-041-071-084-088-261500-
CENTRAL NORTH CAROLINA

CITY           SKY/WX    TMP DP  RH WIND       PRES   REMARKS
CHARLOTTE      MOSUNNY   75  61  61 S6        30.20F
GREENSBORO     PTSUNNY   73  59  61 W6        30.18F
WINSTON-SALEM  PTSUNNY   73  61  65 CALM      30.20F
RALEIGH-DURHAM MOSUNNY   77  64  64 SW6       30.19F
FORT BRAGG     SUNNY     78  62  58 VRB6      30.18F
FAYETTEVILLE   MOSUNNY   78  62  57 SW9       30.19F
BURLINGTON     MOSUNNY   78  61  55 SW7       30.17F
LAURINBURG     SUNNY     77  63  61 SW7       30.21S
$$

NCZ011-015-027-028-043-044-047-080-103-261500-
NORTHEASTERN NORTH CAROLINA

CITY           SKY/WX    TMP DP  RH WIND       PRES   REMARKS
ROCKY MT-WILSO SUNNY     77  65  66 S8        30.18F
GREENVILLE     SUNNY     79  64  61 SW7       30.20F
WASHINGTON     SUNNY     78  64  61 SW9       30.20S
ELIZABETH CITY SUNNY     77  66  68 S8        30.18F
MANTEO         NOT AVBL
CAPE HATTERAS  SUNNY     75  66  73 SW6       30.23S
$$

NCZ078-087-090-091-093-098-101-261500-
SOUTHEASTERN NORTH CAROLINA

CITY           SKY/WX    TMP DP  RH WIND       PRES   REMARKS
LUMBERTON      MOSUNNY   78  66  66 SW6       30.20F
GOLDSBORO      SUNNY     79  67  68 SW9       30.18F
KINSTON        SUNNY     79  64  61 SW7       30.21F
KENANSVILLE    SUNNY     77  65  64 SW5       30.22F
NEW BERN       SUNNY     80  66  62 SW8       30.22F
CHERRY POINT   SUNNY     80  68  66 SW9       30.22F
BEAUFORT       SUNNY     78  68  71 SW12      30.22F
JACKSONVILLE   SUNNY     79  64  60 SW12G17   30.21F
WILMINGTON     MOSUNNY   79  66  64 SW12      30.21F
$$





USA.gov is the U.S. government's official web portal to all federal, state and local government web resources and services.